Home   Weather   Siegen   Past weeks
Flag for Germany

Past Weather in Siegen, North Rhine-Westphalia, Germany — Yesterday and Last 2 Weeks

Now
46 °F

Sunny.


Feels Like: 42 °F
Forecast: 60 / 38 °F
Wind: 8 mph from Southeast

Location: Siegerland Airport

Current Time: Apr 4, 2020 at 8:13:46 pm

Latest Report: Apr 4, 2020 at 7:50 pm


Visibility: 10 mi

Pressure: 30.21 "Hg

Humidity: 53%

Dew Point: 30 °F

Location of SiegenLocation

Past Weather in Siegen — Graph

°F

Siegen Temperature Yesterday

Maximum temperature yesterday: 45 °F (at 3:20 pm)
Minimum temperature yesterday: 37 °F (at 7:50 am)
Average temperature yesterday: 42 °F

High & Low Weather Summary for the Past Weeks

 TemperatureHumidityPressure
High57 °F (Mar 28, 1:50 pm)100% (Mar 31, 8:20 am)30.48 "Hg (Mar 31, 8:20 am)
Low25 °F (Mar 30, 8:20 am)20% (Mar 25, 12:50 pm)29.83 "Hg (Apr 2, 3:20 pm)
Average40 °F50%30.18 "Hg
* Reported Mar 20 5:20 pm — Apr 4 6:50 pm, Siegen. Weather by CustomWeather, © 2020

Note: Actual official high and low records may vary slightly from our data, if they occured in-between our weather recording intervals... More about our weather records

Siegen Weather History for the Previous 24 Hours

Scroll right to see more
 ConditionsComfort  
Time TempWeatherWind HumidityBarometerVisibility
6:50 pm
Sat, Apr 4
50 °FSunny.10 mph47%30.21 "Hg10 mi
6:20 pm50 °FPassing clouds.9 mph47%30.21 "HgN/A
5:50 pm50 °FPassing clouds.8 mph43%30.21 "HgN/A
5:20 pm50 °FPassing clouds.6 mph43%30.21 "HgN/A
4:50 pm50 °FPassing clouds.6 mph43%30.21 "HgN/A
4:20 pm50 °FPassing clouds.7 mph43%30.21 "HgN/A
3:50 pm50 °FPassing clouds.6 mph43%30.21 "HgN/A
3:20 pm50 °FSunny.6 mph40%30.21 "Hg10 mi
2:50 pm50 °FSunny.6 mph47%30.21 "Hg10 mi
2:20 pm48 °FPassing clouds.8 mph46%30.21 "HgN/A
1:50 pm48 °FPassing clouds.6 mph50%30.21 "HgN/A
1:20 pm46 °FSunny.7 mph46%30.21 "Hg10 mi
12:50 pm45 °FPassing clouds.8 mph46%30.24 "HgN/A
12:20 pm45 °FPassing clouds.6 mph46%30.24 "HgN/A
11:50 am43 °FPassing clouds.7 mph57%30.24 "HgN/A
11:20 am41 °FPassing clouds.7 mph57%30.24 "HgN/A
10:50 am41 °FPassing clouds.6 mph57%30.24 "HgN/A
10:20 am39 °FPassing clouds.7 mph61%30.21 "HgN/A
9:50 am37 °FPassing clouds.6 mph70%30.21 "HgN/A
9:20 am37 °FPassing clouds.6 mph70%30.21 "HgN/A
8:50 am37 °FPassing clouds.5 mph81%30.18 "HgN/A
8:20 am36 °FSunny.2 mph81%30.18 "Hg10 mi
7:50 am34 °FSunny.2 mph87%30.18 "Hg10 mi
Weather by CustomWeather, © 2020

See weather overview

Advertising